Weather History for KAVL - March, 2012

Change the Weather History Date:

Monday, March 26, 2012

  Actual Average Record
Temperature  
Mean Temperature 63 °F 50 °F  
Max Temperature 71 °F 62 °F 79 °F (1944)
Min Temperature 54 °F 38 °F 13 °F (1955)
Degree Days  
Heating Degree Days 2 15  
Month to date heating degree days 243 481  
Since 1 July heating degree days 3049 3698  
Cooling Degree Days 0 0  
Month to date cooling degree days 1 0  
Year to date cooling degree days 1 0  
Growing Degree Days 13 (Base 50)    
Moisture  
Dew Point 45 °F    
Average Humidity 56    
Maximum Humidity 77    
Minimum Humidity 34    
Precipitation  
Precipitation 0.00 in 0.13 in 3.00 in (1901)
Month to date precipitation 2.46 3.20  
Year to date precipitation 7.90 10.63  
Snow  
Snow 0.00 in 0.10 in 3.00 in (1947)
Month to date snowfall T 1.7  
Since 1 July snowfall T 9.0  
Snow Depth 0.00 in    
Sea Level Pressure  
Sea Level Pressure 29.99 in    
Wind  
Wind Speed 13 mph (NNW)    
Max Wind Speed 28 mph    
Max Gust Speed 32 mph    
Visibility 10 miles    
Events      
T = Trace of Precipitation, MM = Missing Value Source: NWS Daily Summary

Daily Weather History Graph

Daily Weather History Graph

Search for Another Location

Airport or City:

Trip Planner

Search our weather history database for the weather conditions in past years. The results will help you decide how hot, cold, wet, or windy it might be!

Date:

Astronomy

Mar. 26, 2012 Rise Set
Actual Time 7:24 AM EDT 7:47 PM EDT
Civil Twilight 6:59 AM EDT 8:12 PM EDT
Nautical Twilight 6:29 AM EDT 8:42 PM EDT
Astronomical Twilight 5:58 AM EDT 9:13 PM EDT
Moon 9:22 AM EDT (3/26) 11:46 PM EDT (3/26)
Length of Visible Light 13h 13m
Length of Day
12h 22m
Waxing Crescent, 14% of the Moon is Illuminated
Mar 26
Waxing Crescent
Mar 30
First Quarter
Apr 6
Full
Apr 13
Last Quarter
Apr 21
New

Hourly Weather History & Observations

Time (EDT) Temp. Dew Point Humidity Pressure Visibility Wind Dir Wind Speed Gust Speed Precip Events Conditions
12:54 AM 55.9 °F 48.0 °F 75% 29.90 in 10.0 mi NNE 8.1 mph - N/A   Clear
1:54 AM 57.0 °F 46.9 °F 69% 29.90 in 10.0 mi North 9.2 mph - N/A   Clear
2:54 AM 57.0 °F 46.9 °F 69% 29.90 in 10.0 mi NNW 24.2 mph - N/A   Clear
3:54 AM 57.2 °F 48.2 °F 72% 29.96 in 10.0 mi North 5.8 mph - N/A   Mostly Cloudy
4:54 AM 57.0 °F 48.0 °F 72% 29.92 in 10.0 mi North 13.8 mph 21.9 mph N/A   Scattered Clouds
5:54 AM 55.9 °F 46.9 °F 72% 29.94 in 10.0 mi North 13.8 mph 29.9 mph N/A   Clear
6:54 AM 55.0 °F 46.9 °F 74% 29.96 in 10.0 mi North 12.7 mph - N/A   Clear
7:54 AM 55.0 °F 46.9 °F 74% 29.99 in 10.0 mi NNW 17.3 mph 24.2 mph N/A   Clear
8:54 AM 59.0 °F 46.0 °F 62% 30.02 in 10.0 mi North 11.5 mph - N/A   Clear
9:54 AM 61.0 °F 45.0 °F 56% 30.02 in 10.0 mi NNW 23.0 mph 32.2 mph N/A   Clear
10:54 AM 62.1 °F 46.0 °F 56% 30.03 in 10.0 mi North 15.0 mph 25.3 mph N/A   Clear
11:54 AM 66.0 °F 46.0 °F 48% 30.03 in 10.0 mi North 12.7 mph - N/A   Clear
12:54 PM 68.0 °F 46.0 °F 45% 30.03 in 10.0 mi NNW 16.1 mph 21.9 mph N/A   Clear
1:54 PM 69.1 °F 46.0 °F 44% 30.02 in 10.0 mi North 13.8 mph 21.9 mph N/A   Clear
2:54 PM 70.0 °F 44.1 °F 39% 30.00 in 10.0 mi NNW 16.1 mph 27.6 mph N/A   Clear
3:54 PM 71.1 °F 41.0 °F 34% 29.98 in 10.0 mi NNW 18.4 mph 25.3 mph N/A   Clear
4:54 PM 71.1 °F 43.0 °F 36% 29.98 in 10.0 mi North 13.8 mph 26.5 mph N/A   Clear
5:54 PM 70.0 °F 42.1 °F 36% 29.98 in 10.0 mi North 16.1 mph 25.3 mph N/A   Clear
6:54 PM 68.0 °F 43.0 °F 40% 29.99 in 10.0 mi North 15.0 mph 26.5 mph N/A   Clear
7:54 PM 64.9 °F 44.1 °F 47% 30.01 in 10.0 mi NNW 12.7 mph - N/A   Clear
8:54 PM 64.0 °F 44.1 °F 48% 30.02 in 10.0 mi NNW 9.2 mph - N/A   Clear
9:54 PM 62.1 °F 44.1 °F 52% 30.06 in 10.0 mi NNW 4.6 mph - N/A   Clear
10:54 PM 59.0 °F 45.0 °F 60% 30.08 in 10.0 mi NNW 5.8 mph - N/A   Clear
11:54 PM 59.0 °F 44.1 °F 58% 30.09 in 10.0 mi North 3.5 mph - N/A   Clear